Other Public Products
Issued by NWS Charleston, SC

Current Version | Previous Version | Graphics & Text | Print | Product List | Glossary On
Versions: 1 2 3 4 5 6 7 8 9 10 11 12 13 14 15 16 17 18 19 20 21 22 23 24 25 26 27 28 29 30 31 32 33 34 35 36 37 38 39 40 41 42 43 44 45 46 47 48 49 50
517
FPUS82 KCHS 260327
OPUCHS

TEST...KCHS/KSAV Gateway Observations...TEST
National Weather Service Charleston SC
1100 PM EDT TUE APR 25 2017

NOTE: "fair" indicates few or no clouds below 12,000 feet with no
significant weather and/or obstructions to visibility.

SCZ050-WAZ558-NCZ071-TXZ119-213-PAZ071-DCZ001-FLZ074-172-MI076-
NYZ176-178-MAZ016-IL014-TNZ027-NJZ106-GAZ044-MD014-260400-

...Gateway Observations for Charleston International...

CITY           SKY/WX    TMP DP  RH WIND       PRES   REMARKS
Chas Airport   PTCLDY    66  60  81 SE3       29.79R
Seattle        CLOUDY    51  45  79 W6        29.80S
Charlotte      CLOUDY    64  57  78 VRB6      29.79R
Dallas DFW     PTCLDY    79  68  69 S24G30    29.42R
Dallas Love    PTCLDY    79  67  66 S16       29.45R
Philladelphia  CLOUDY    56  54  93 NE16      29.78F
Wash National  DRIZZLE   58  58 100 N13       29.75S FOG
Baltimore      LGT RAIN  57  57 100 NE8       29.74S FOG
Miami          PTCLDY    73  59  61 W6        29.88R
Detroit        MOCLDY    57  51  80 E7        29.74R
Newark         LGT RAIN  53  52  96 NE16      29.87F
Laguardia      LGT RAIN  53  50  89 NE14      29.89R
J F K          LGT RAIN  58  56  93 E15       29.88R
Boston Logan   LGT RAIN  47  47 100 NE14      30.08F FOG
Ft. Lauderdale PTCLDY    72  59  63 W8        29.87R
Chicago O`Hare CLOUDY    69  52  54 S9        29.57R
Chicago Midway CLOUDY    73  53  49 S6        29.58R
Houston Bush   MOCLDY    77  69  76 S14       29.59R
Houston Hobby  CLOUDY    76  71  85 S8        29.61R
Nashville      CLEAR     65  56  72 S5        29.70S
Atlanta        CLEAR     67  56  67 NW3       29.78R

$$

GAZ044-118-TXZ119-213-NCZ071-DCZ001-MDZ014-506-PAZ021-071-NJZ106-
NYZ176-178-MAZ106-OHZ011-021-055-MIZ076-KYZ091-ILZ014-INZ047-
MNZ060-ONZ431-260400-

...Gateway Observations for Savannah International...

CITY           SKY/WX    TMP DP  RH WIND       PRES   REMARKS
Savannah Arpt  MOCLDY    70  59  68 CALM      29.79R
Atlanta        CLEAR     67  56  67 NW3       29.78R
Charlotte      CLOUDY    64  57  78 VRB6      29.79R
Dallas DFW     PTCLDY    79  68  69 S24G30    29.42R
Houston Bush   MOCLDY    77  69  76 S14       29.59R
Wash National  DRIZZLE   58  58 100 N13       29.75S FOG
Wash Dulles    DRIZZLE   58  56  93 N8        29.76F FOG
Baltimore      LGT RAIN  57  57 100 NE8       29.74S FOG
Philadelphia   CLOUDY    56  54  93 NE16      29.78F
Newark         LGT RAIN  53  52  96 NE16      29.87F
Laguardia      LGT RAIN  53  50  89 NE14      29.89R
J F K          LGT RAIN  58  56  93 E15       29.88R
Boston         LGT RAIN  47  47 100 NE14      30.08F FOG
Pittsburg      CLOUDY    55  54  96 E6        29.79F
Akron          CLOUDY    61  53  75 SE10      29.78F
Cleveland      PTCLDY    64  53  67 SE13      29.77S
Cincinnati     PTCLDY    62  56  80 S10       29.69F
Columbus       CLEAR     61  55  78 SE3       29.72S
Detroit        MOCLDY    57  51  80 E7        29.74R
Chicago O`Hare CLOUDY    69  52  54 S9        29.57R
Minneapolis    LGT RAIN  54  51  90 NE10      29.55F FOG
Indianapolis   PTCLDY    68  55  63 SE14      29.64R
Toronto Canada PTCLDY    50  46  87 E10G17    29.85F

$$




USA.gov is the U.S. government's official web portal to all federal, state and local government web resources and services.